Date String (YYYY-MM-DD hh:mm:ss) UTC,Instrument flags,absolute air pressure of the measurement (hPa),sample flow rate (lpm),inlet stack bypass flow (lpm),air temperature of the measurement (°C),ambient temperature measured by the external sensor (°C),aerosol sample conditioner tube jacket temperature (°C),OPC LED temperature (°C),internal box temperature (°C),relative humidity of the measurement (%),span deviation,mass concentration of particles derived from Lorenz-Mie calculation of OPC scattering (μg/m³),mass concentration of particles derived from Lorenz-Mie calculation of OPC scattering (μg/m³),mass concentration of particles derived from Lorenz-Mie calculation of OPC scattering (μg/m³)
DateTimeUTC,F1_M11,P_M11,Q1_M11,Q2_M11,T1_M11,T2_M11,T3_M11,T4_M11,T5_M11,U1_M11,ZSPAN_M11,X2_M11,X0_M11,X1_M11
2023-10-22 11:00:00,SystemResetWarning,0827.1,5.00,000.00,029.2,027.7,000.0,037.6,030.8,15.6,0000.0,0004.76,0023.49,0001.96
2023-10-22 11:01:00,SystemResetWarning,0827.1,5.00,000.00,029.2,027.7,000.0,037.6,030.8,15.6,0000.0,0004.72,0024.80,0001.94
2023-10-22 11:02:00,SystemResetWarning,0827.1,5.00,000.00,029.2,027.7,000.0,037.6,030.8,15.8,0000.0,0004.77,0025.83,0001.94
2023-10-22 11:03:00,SystemResetWarning,0827.2,5.00,000.00,029.2,027.7,000.0,037.6,030.8,15.7,0000.0,0004.76,0025.21,0001.96
2023-10-22 11:04:00,SystemResetWarning,0827.1,5.00,000.00,029.2,027.7,000.0,037.6,030.8,15.6,0000.0,0004.73,0025.51,0001.97
2023-10-22 11:05:00,SystemResetWarning,0827.1,5.01,000.00,029.2,027.7,000.0,037.6,030.8,15.6,0000.0,0004.69,0026.01,0001.97
2023-10-22 11:06:00,SystemResetWarning,0827.1,5.01,000.00,029.2,027.7,000.0,037.6,030.8,15.7,0000.0,0004.61,0024.86,0001.99
2023-10-22 11:07:00,SystemResetWarning,0827.1,5.01,000.00,029.2,027.7,000.0,037.6,030.8,15.8,0000.0,0004.55,0022.78,0002.00
2023-10-22 11:08:00,SystemResetWarning,0827.1,5.00,000.00,029.2,027.7,000.0,037.6,030.8,15.8,0000.0,0004.58,0022.46,0002.01
2023-10-22 11:09:00,SystemResetWarning,0827.2,4.99,000.00,029.2,027.6,000.0,037.6,030.8,15.8,0000.0,0004.52,0022.87,0002.02
2023-10-22 11:10:00,SystemResetWarning,0827.2,5.00,000.00,029.2,027.6,000.0,037.6,030.8,15.9,0000.0,0004.55,0023.29,0002.02
2023-10-22 11:11:00,SystemResetWarning,0827.2,5.00,000.00,029.2,027.6,000.0,037.6,030.8,15.9,0000.0,0004.66,0022.48,0002.04
2023-10-22 11:12:00,SystemResetWarning,0827.2,5.00,000.00,029.2,027.6,000.0,037.6,030.8,15.9,0000.0,0004.68,0021.11,0002.05
2023-10-22 11:13:00,SystemResetWarning,0827.2,5.01,000.00,029.2,027.6,000.0,037.6,030.8,15.8,0000.0,0004.63,0020.45,0002.06
2023-10-22 11:14:00,SystemResetWarning,0827.3,5.00,000.00,029.2,027.6,000.0,037.6,030.8,15.7,0000.0,0004.64,0021.75,0002.07
2023-10-22 11:15:00,SystemResetWarning,0827.3,5.00,000.00,029.2,027.6,000.0,037.6,030.8,15.6,0000.0,0004.61,0022.14,0002.06
2023-10-22 11:16:00,SystemResetWarning,0827.3,5.00,000.00,029.2,027.6,000.0,037.6,030.8,15.7,0000.0,0004.72,0023.34,0002.06
2023-10-22 11:17:00,SystemResetWarning,0827.3,5.00,000.00,029.2,027.6,000.0,037.6,030.8,16.0,0000.0,0004.71,0025.44,0002.03
2023-10-22 11:18:00,SystemResetWarning,0827.2,5.00,000.00,029.2,027.6,000.0,037.6,030.7,16.0,0000.0,0004.74,0025.14,0002.03
2023-10-22 11:19:00,SystemResetWarning,0827.2,5.00,000.00,029.2,027.6,000.0,037.6,030.8,16.0,0000.0,0004.74,0025.07,0002.02
2023-10-22 11:20:00,SystemResetWarning,0827.3,5.00,000.00,029.2,027.6,000.0,037.6,030.8,15.7,0000.0,0004.69,0025.39,0002.01
2023-10-22 11:21:00,SystemResetWarning,0827.3,5.00,000.00,029.2,027.6,000.0,037.6,030.8,15.6,0000.0,0004.67,0024.80,0002.01
2023-10-22 11:22:00,SystemResetWarning,0827.3,5.01,000.00,029.2,027.6,000.0,037.6,030.8,15.5,0000.0,0004.55,0024.14,0002.01
2023-10-22 11:23:00,SystemResetWarning,0827.3,5.00,000.00,029.2,027.6,000.0,037.6,030.8,15.5,0000.0,0004.54,0026.30,0002.00
2023-10-22 11:24:00,SystemResetWarning,0827.4,5.00,000.00,029.2,027.6,000.0,037.6,030.8,15.3,0000.0,0004.63,0027.40,0002.01
2023-10-22 11:25:00,SystemResetWarning,0827.3,5.00,000.00,029.2,027.6,000.0,037.6,030.8,15.2,0000.0,0004.66,0026.79,0001.98
2023-10-22 11:26:00,SystemResetWarning,0827.3,5.00,000.00,029.2,027.6,000.0,037.6,030.7,15.2,0000.0,0004.69,0027.15,0001.95
2023-10-22 11:27:00,SystemResetWarning,0827.4,5.00,000.00,029.1,027.6,000.0,037.6,030.8,15.2,0000.0,0004.68,0027.10,0001.93
2023-10-22 11:28:00,SystemResetWarning,0827.3,5.00,000.00,029.1,027.6,000.0,037.6,030.7,15.2,0000.0,0004.74,0025.49,0001.95
2023-10-22 11:29:00,SystemResetWarning,0827.3,5.00,000.00,029.1,027.6,000.0,037.6,030.8,15.1,0000.0,0004.72,0026.37,0001.94
2023-10-22 11:30:00,SystemResetWarning,0827.3,5.00,000.00,029.1,027.6,000.0,037.6,030.7,14.9,0000.0,0004.76,0026.54,0001.95
2023-10-22 11:31:00,SystemResetWarning,0827.3,4.99,000.00,029.1,027.5,000.0,037.6,030.7,14.8,0000.0,0004.81,0027.12,0001.92
2023-10-22 11:32:00,SystemResetWarning,0827.3,4.99,000.00,029.1,027.5,000.0,037.6,030.7,14.7,0000.0,0004.84,0026.81,0001.90
2023-10-22 11:33:00,SystemResetWarning,0827.3,5.00,000.00,029.1,027.5,000.0,037.6,030.7,14.6,0000.0,0004.91,0028.08,0001.88
2023-10-22 11:34:00,SystemResetWarning,0827.3,5.01,000.00,029.1,027.5,000.0,037.6,030.7,15.0,0000.0,0004.90,0027.10,0001.85
2023-10-22 11:35:00,SystemResetWarning,0827.3,5.00,000.00,029.1,027.5,000.0,037.6,030.6,14.9,0000.0,0004.85,0026.03,0001.83
2023-10-22 11:36:00,SystemResetWarning,0827.2,5.01,000.00,029.1,027.5,000.0,037.6,030.7,15.1,0000.0,0004.77,0025.48,0001.82
2023-10-22 11:37:00,SystemResetWarning,0827.2,5.00,000.00,029.1,027.4,000.0,037.6,030.6,15.0,0000.0,0004.77,0026.02,0001.82
2023-10-22 11:38:00,SystemResetWarning,0827.3,5.00,000.00,029.1,027.4,000.0,037.6,030.6,15.1,0000.0,0004.72,0026.56,0001.81
2023-10-22 11:39:00,SystemResetWarning,0827.3,5.00,000.00,029.0,027.4,000.0,037.5,030.6,15.1,0000.0,0004.68,0026.23,0001.79
2023-10-22 11:40:00,SystemResetWarning,0827.3,5.00,000.00,029.0,027.4,000.0,037.5,030.6,15.0,0000.0,0004.73,0024.96,0001.76
2023-10-22 11:41:00,SystemResetWarning,0827.3,5.00,000.00,029.0,027.4,000.0,037.5,030.6,14.9,0000.0,0004.76,0024.88,0001.74
2023-10-22 11:42:00,SystemResetWarning,0827.4,5.00,000.00,029.0,027.4,000.0,037.5,030.6,14.9,0000.0,0004.76,0023.56,0001.74
2023-10-22 11:43:00,SystemResetWarning,0827.3,5.00,000.00,029.0,027.4,000.0,037.5,030.6,15.0,0000.0,0004.75,0023.09,0001.74
2023-10-22 11:44:00,SystemResetWarning,0827.4,5.00,000.00,029.0,027.4,000.0,037.5,030.6,15.1,0000.0,0004.72,0021.73,0001.73
2023-10-22 11:45:00,SystemResetWarning,0827.4,4.99,000.00,029.0,027.4,000.0,037.5,030.6,15.0,0000.0,0004.71,0022.14,0001.73
2023-10-22 11:46:00,SystemResetWarning,0827.4,5.00,000.00,029.0,027.4,000.0,037.5,030.6,14.9,0000.0,0004.75,0022.02,0001.75
2023-10-22 11:47:00,SystemResetWarning,0827.4,5.00,000.00,029.0,027.4,000.0,037.5,030.6,14.8,0000.0,0004.79,0022.13,0001.76
2023-10-22 11:48:00,SystemResetWarning,0827.3,4.99,000.00,029.0,027.4,000.0,037.5,030.6,14.9,0000.0,0004.72,0021.00,0001.74
2023-10-22 11:49:00,SystemResetWarning,0827.4,5.00,000.00,029.0,027.4,000.0,037.5,030.6,14.9,0000.0,0004.71,0019.26,0001.73
2023-10-22 11:50:00,SystemResetWarning,0827.4,5.00,000.00,029.0,027.4,000.0,037.5,030.6,14.8,0000.0,0004.66,0017.68,0001.73
2023-10-22 11:51:00,SystemResetWarning,0827.4,5.00,000.00,029.0,027.4,000.0,037.5,030.6,14.8,0000.0,0004.60,0017.69,0001.74
2023-10-22 11:52:00,SystemResetWarning,0827.4,5.00,000.00,029.0,027.4,000.0,037.5,030.6,14.6,0000.0,0004.61,0017.93,0001.75
2023-10-22 11:53:00,SystemResetWarning,0827.4,5.00,000.00,029.0,027.4,000.0,037.5,030.6,14.8,0000.0,0004.56,0017.96,0001.73
2023-10-22 11:54:00,SystemResetWarning,0827.4,5.00,000.00,029.0,027.4,000.0,037.5,030.6,14.9,0000.0,0004.57,0017.12,0001.73
2023-10-22 11:55:00,SystemResetWarning,0827.4,5.00,000.00,029.0,027.4,000.0,037.5,030.6,15.0,0000.0,0004.57,0018.73,0001.72
2023-10-22 11:56:00,SystemResetWarning,0827.4,5.00,000.00,029.0,027.5,000.0,037.5,030.6,15.2,0000.0,0004.61,0019.06,0001.74
2023-10-22 11:57:00,SystemResetWarning,0827.4,5.00,000.00,029.0,027.5,000.0,037.5,030.6,15.2,0000.0,0004.61,0019.19,0001.74
2023-10-22 11:58:00,SystemResetWarning,0827.4,4.99,000.00,029.0,027.5,000.0,037.5,030.6,15.2,0000.0,0004.61,0020.42,0001.74
2023-10-22 11:59:00,SystemResetWarning,0827.4,5.00,000.00,029.0,027.5,000.0,037.5,030.6,15.2,0000.0,0004.66,0020.71,0001.76
